Timeline UpdatesTrip UpdatesNews PostsPvt PostsTravel TipsAdmin PostsConv PostsFollowed PostsChat RequestsBlog PostsPNR Posts

Disclaimer
Search
 
 
Fri Aug 1, 2014 05:13:29 ISTHomeTrainsΣChainsAtlasPNRForumGalleryNewsFAQTripsMembersLoginFeedback
No Recent News for this Train
Other Trains in the News **new
Latest...
.
Thu Jul 24, 2014 (11:10PM)
⇐ Return Journey: Train# 19019

19020/Dehradun - Mumbai Bandra Terminus Express

Apr 15 2014 (1:35PM)
Change Departure Station:
Change Arrival Station:
Post a Train Travel TipPost a Train Travel Tip **new
Post a Comment/Question/Picture/VideoPost a Comment/Question/Picture/Video
Pantry/Catering
✕ NO Pantry Car
✓ Catering Avbl
Loco/Rake Reversals
SRE/Saharanpur Junction (6); LRJ/Laksar Junction (4);
RSA - Rake Sharing
Rake/Coach Composition
LOCO-SLR-HCPV-GEN-GEN-AB1-S1-S2-S3-S4-S5-S6-S7-S8-S9-SLR
Loco
GZB WAP-7 NZM-BDTS. ddn to nzm tkd wdp 3a. By Er...
Read more...
Ankit Shotra Bhagat Entry# 595554
News    PNR    Forum    Time-Table    Availability    Fare Chart    Map    Arr/Dep History    Trips    Gallery    ΣChains    X/O    Timeline    
Travel Time: 13h 22m    30 halts    Distance: 615 km    Avg Speed: 46 km/hr
Type: Mail/Express
Zone: WR/Western
Departs @ 14:58 (Avg 20m late)
Platform# ???
SMTWTFS
Raoti/RTI 
Arrives @ 04:20 +1 night (Avg 5m late)
Platform# 1
SMTWTFS
Mumbai Bandra Terminus/BDTS 

30 halts. 108 intermediate Stations between Raoti and Mumbai Bandra Terminus

Show ALL intermediate Stations  Show Old Time-Table

#CodeStation NameX/OArrivesAvgDepartsAvgHaltPFDay#KmSpeedElevZoneAddress
1DDNDehradun (4)  -10:35+021-1066.641648mNRDehradun, Uttarakhand
2DWODoiwala  11:04+411:06+42m--1-1046.839484mNRDehradun, Uttarakhand
3RWLRaiwala Junction (2)X  11:38+411:40+172m21-1026.120361mNRRishikesh, Uttarakhand
4MOTCMotichur (2)X  12:00+812:02+102m11-1019.521312mNRHaridwar, Uttarakhand
5HWHaridwar Junction (9)X  12:15+912:45+1030m31-1015.030294mNRHaridwar, Uttarakhand
6JWPJwalapurX  12:53+1212:55+132m--1-1011.021292mNRHaridwar, Uttarakhand
7LRJLaksar Junction (4)X14:00+514:25+625m--1-988.059238mNRLaksar, Uttarakhand
8RKRoorkee (3)X  14:43+814:45+92m31-970.242264mNRRoorkee - 247667, Uttarakhand
9SRESaharanpur Junction (6)X15:35+416:05+030m41-935.546276mNRSaharanpur, Uttar Pradesh
10DBDDeoband (2)  16:50+516:52+72m21-901.351258mNRSaharanpur, Uttar Pradesh
11MOZMuzaffarnagar (3)X  17:20+517:22+212m21-877.367247mNRMuzaffarNagar, Uttar Pradesh
12KATKhatauli (2)  17:42+2317:44+242m11-855.173239mNRKhatauli, Uttar Pradesh
13MUTMeerut Cantt. (2)  18:08+2818:10+282m11-826.010230mNRMeerut, Uttar Pradesh
14MTCMeerut City Junction (6)X18:35+1319:20+745m41-821.783229mNRMeerut, Uttar Pradesh
15MDNRModinagar (2)X  19:34+1319:36+132m21-802.267221mNRGhaziabad, Uttar Pradesh
16MUDMuradnagar (2)  19:45+1419:47+142m21-792.147220mNRGhaziabad, Uttar Pradesh
17GZNNew Ghaziabad (2)X  20:02+420:04+42m21-780.414213mNRGhaziabad, Uttar Pradesh
18GZBGhaziabad Junction (6)X  20:30+220:32+32m41-774.545217mNRGhaziabad, Uttar Pradesh
19SBBSahibabad Junction (5)X  20:41+920:43+92m--1-767.830209mNRGhaziabad, Uttar Pradesh
20NZMDelhi Hazrat Nizamuddin (7)O21:15+1321:55+940m11-751.825209mNRNizamuddin East/Sarai KaleKhan Bus Terminal, Delhi NCT
21TKDTuglakabad (4)XO  22:18+922:20+122m--1-742.128213mNRNear Tughlakabad Metro Station, Delhi NCT
22FDBFaridabad (4)  22:44+622:46+102m31-731.040206mNRold Faridabad, Haryana
23BVHBallabgarh (5)O  22:58+823:00+102m--1-722.935203mNRFaridabad, Haryana
24PWLPalwal (8)X  23:36-123:38+22m--1-701.785200mNRPalwal, Haryana
25KSVKosi Kalan (3)O  00:08+1600:10+172m22-659.229189mNCRKosi Kalan, Uttar Pradesh
26MTJMathura Junction (10)X  01:35-201:45+110m32-617.880179mNCRMathura, Uttar Pradesh
27BTEBharatpur Junction (5)  02:10+702:15+65m--2-584.384174mWCRBharatpur, Rajasthan
28BXNBayana Junction (3)XO  02:45+802:47+102m--2-542.374198mWCRBayana, Rajasthan
29FSPFateh SinghpuraO  03:03+1003:05+122m--2-522.679223mWCRState Highway 1, Rajasthan
30HANHindaun City (2)  03:15+1403:17+162m--2-509.468230mWCRKarauli, Rajasthan
31SMBJShri Mahabirji (3)O  03:26+1803:28+182m--2-499.249240mWCRKarauli, Rajasthan
32GGCGangapur City (3)  04:10+304:20+610m--2-465.164270mWCRGangapur, Rajasthan
33NNWNarayanpur Tatwara (2)X  04:36+704:38+72m--2-448.284256mWCRSawai Madhopur, Rajasthan
34MLZMalarnaX  04:50+904:52+102m--2-431.465236mWCRSawai Madhopur, Rajasthan
35SWMSawai Madhopur Junction (4)XO  05:20+905:25+95m--2-401.295266mWCRSawai Madhopur, Rajasthan
36IDGIndargarh Sumerganj Mandi (2)X  05:48+1505:50+172m--2-365.082247mWCRIndargarh, Rajasthan
37LKELakheri (3)  05:58+2006:00+192m--2-354.074228mWCRBundi, Rajasthan
38KPTNKeshorai PatanX  06:38+2006:40+232m--2-306.960243mWCRSH 33, Rajasthan
39GQLGurla  06:48+2706:50+302m--2-298.98251mWCRSH 33, Rajasthan
40KOTAKota Junction (5)X07:30+807:50+1320m22-293.551256mWCRKota, Rajasthan
41DKNTDakaniya Talav (2)  08:01+1908:03+212m22-284.285278mWCRKota, Rajasthan
42DARADaraX  08:30+2508:32+252m--2-246.155354mWCRDara, Rajasthan
43MKXMorak (2)X  08:48+2608:50+262m--2-231.342337mWCRMorak, Rajasthan
44RMARamganj Mandi Junction (3)  09:03+2309:05+262m--2-222.357358mWCRRamganj Mandi, Rajasthan
45JHWJhalawar Road (3)  09:18+2409:20+252m--2-209.955361mWCRJhalawar City, Rajasthan
46BWMBhawani Mandi (3)X  09:38+2209:40+292m--2-193.476384mWCRBhawani Mandi, Madhya Pradesh
47GOHGaroth (2)X  09:58+3010:00+302m12-170.826441mWCRMadhya Pradesh 458880, Madhya Pradesh
48SGZShamgarh (3)X  10:25+1710:30+215m--2-159.967463mWCRMandsaur, Madhya Pradesh
49SVASuwasra (2)  10:42+2410:44+252m--2-146.566450mWCRSuwasra, Madhya Pradesh
50CMUChau Mahla (3)  10:58+2511:00+272m12-131.135426mWCRJhalawar, Rajasthan
51THURThuriaX  11:24+1611:26+162m--2-117.021430mWCRMDR 45, Madhya Pradesh
52VMAVikramgarh Alot (2)X  11:48+511:50+102m12-109.361443mWCRKota Division, Madhya Pradesh
53LNRLuni Richha  12:03+912:05+102m--2-96.028471mWCRAlote, Madhya Pradesh
54MEPMahidpur Road  12:28+012:30+32m--2-85.429493mWCRGogapur, Madhya Pradesh
55NADNagda Junction (4)  13:05+013:15+310m--2-68.475468mWRNagda, Madhya Pradesh
56KUHKhachrod (2)  13:26+813:28+92m--2-54.657497mWRUjjain, Madhya Pradesh
57RNHRunkheraX  13:39+713:41+62m--2-44.163478mWRUjjain, Madhya Pradesh
58BODBangrodX  13:48+813:50+82m--2-36.724484mWRRatlam, Madhya Pradesh
59RTMRatlam Junction (7)X  14:15+514:35+1020m42-26.977495mWRRatlam, Madhya Pradesh
60RTI»Raoti (2)»  14:56+2014:58+202m--20.071409mWRState Highway 39A, Madhya Pradesh
61BOGBhairongarh (2)  15:08+2115:10+202m--211.951374mWRBhairongarh Railway Station, Madhya Pradesh
62BMIBamnia (2)  15:17+2115:19+212m--217.842392mWRBamnia, Madhya Pradesh
63AGRAmargarh (2)  15:25+2115:27+202m--222.057410mWRSH 39A, Madhya Pradesh
64PCNPanch Pipila (2)  15:37+2015:39+202m--231.584369mWRSH 39A, Madhya Pradesh
65THDRThandla Road (2)  15:49+2215:51+222m--245.460317mWRJhabua, Madhya Pradesh
66MGNMeghnagar (3)  15:59+2316:01+242m--253.473317mWRJhabua, Madhya Pradesh
67ANASAnas (2)  16:13+2516:15+242m--267.979288mWRMadhya Pradesh 389154 ?, Madhya Pradesh
68BIOBordi (2)  16:21+2516:23+252m--275.953289mWRNational Highway 59, Gujarat
69DHDDahod (3)  16:35+2816:40+285m--286.576313mWRDahod, Gujarat
70LMKLimkheda  17:06+3217:08+322m--2119.468205mWRLimkheda, Gujarat
71PPDPiplod Junction  17:15+3317:17+322m--2127.479209mWRPiplod, Gujarat
72SATSant Road (2)X  17:26+3317:28+322m22139.220169mWROrwara, Gujarat
73GDAGodhra Junction (3)X  18:30+518:35+85m102159.665122mWRGodhra, Gujarat
74KRSAKharsaliya (2)  18:45+1218:47+112m--2170.585107mWRPanchmahal, Gujarat
75DRLDerolX  18:56+1318:58+122m12183.26881mWRKalol, Gujarat
76CPNChampaner Road JunctionX  19:09+1419:11+132m--2195.77578mWRPanchmahal, Gujarat
77SMLASamlaya Junction (3)X  19:20+1319:22+132m--2206.94867mWRVadodara, Gujarat
78BRCVadodara Junction (7)  19:55+1920:05+2010m32233.58936mWRVadodara 390005, Gujarat
79MYGMiyagam Karjan (2)  20:25+2620:27+262m--2263.37229mWRKarjan, Gujarat
80BHBharuch Junction (5)  21:01+2221:03+222m42304.06219mWRBharuch, Gujarat
81AKVAnkleshwar Junction (4)X  21:12+2421:14+242m22313.37419mWRAnkleshwar, Gujarat
82KSBKosamba Junction (3)X21:29+3221:31+242m--2331.93230mWRKosamba, Gujarat
83STSurat (4)X  22:30+1322:38+138m22363.37119mWRSurat 395001, Gujarat
84NVSNavsari (3)  23:03+2023:05+202m--2392.97914mWRNavsari, Gujarat
85BIMBilimora Junction (4)X  23:21+2723:23+272m--2414.13611mWRBilimora, Gujarat
86BLValsad (3)  23:53+2123:55+262m32432.03815mWRValsad, Gujarat
87VAPIVapi (3)X  00:36+1600:38+182m--3458.25727mWRVapi, Gujarat
88PLGPalghar (3)  02:04+2002:06+242m--3539.73719mWRPalghar, Maharashtra
89VRVirar (8)  02:56+1102:58+112m--3570.9486mWRThane, Maharashtra
90BVIMumbai Borivali (8)  03:30+703:32+102m53596.72319mWRMumbai - 400092, Maharashtra
91BDTS•Mumbai Bandra Terminus (5)•  04:20+5-13615.4-4mWRMumbai 400050, Maharashtra
Scroll to Top
Scroll to Bottom